Погода в Серповом

Россия / Тамбовская область     53°37′09″N   41°50′58″E
В апреле 2022 года жителям России запретили посещать сайт meteo.paraplan.net по решению Генеральной прокуратуры. Аудитория сайта уменьшилась в 10 раз. Владельцы сайта не видят смысла в поддержке погодного сервера в таких условиях. Сайт будет закрыт в октябре.
темп.,
°C
ветер,
м/с
пор.,
м/с
влажн.,
%
обл.,
%
осадки,
мм/ч
давл.,
гПа
погр.,
м
5 октября, ср
ср500:00+11ююв5119290 2.0 1014468
03:00+10ююз5991100 2.8 1014476
06:00+9ююз5117891 0.1 1015740
09:00+10ююз697872 0.1 1016885
12:00+10ююз5979100 0.2 10161051
15:00+9юз5985100 0.6 1017837
18:00+9юз4883100 0.9 1018486
21:00+7зюз488785 1.1 1018304
6 октября, чт
чт600:00+7зюз3789100 0.2 1018344
03:00+7з479097 0.6 1019437
06:00+5з379338 0.1 1020286
09:00+8зсз36805 0.1 1020544
12:00+11зсз576168 0.0 10201381
15:00+12з466597 0.3 10201219
18:00+9зюз478694 0.0 1021271
21:00+9юз368852 0.0 1021243
7 октября, пт
пт700:00+9ююз489255 0.0 1020255
03:00+8ююз4109683 0.0 1018241
06:00+8юз411965 0.0 1018271
09:00+11зсз5108661 0.0 1018459
12:00+12сз6107474 0.0 1020856
15:00+14сз796529 0.0 10211318
18:00+10зсз497987 0.0 1023317
21:00+9зсз49780 0.0 1025290
8 октября, сб
сб800:00+7з37910 0.0 1026162
03:00+6з34940 0.0 102690
06:00+6зюз34941 0.0 102780
09:00+9зюз35795 0.0 1027282
12:00+14зюз45595 0.0 1026764
15:00+15зюз45542 0.0 1025894
18:00+10ююз34725 0.0 102466
21:00+9ююз357599 0.0 102484
9 октября, вс
вс900:00+8ююз3778100 0.0 1024121
03:00+7ююз388258 0.0 1023150
06:00+7ю3889100 0.0 1023153
09:00+10ююз51072100 0.0 1022307
12:00+14ююз6955100 0.0 1020698
15:00+16ююз5959100 0.0 10191068
18:00+12ю3676100 0.0 1018111
21:00+11ююз3681100 0.0 1018116